www.pogodaiklimat.ru

Погода и климат >> Архив погоды >> Мали >> Nara


ПОГОДА в Nara

  • Прогноз погоды в Nara
  • Монитор погоды в Nara
  • Климат города

АРХИВ ПОГОДЫ в Nara

Время (UTC), дата Ветер
(напр.,м/с)
 
Видим.   Явления Облачность Т
(С)
Тd
(С)
f
(%)
Тe
(С)
Тes
(С)
Комфортность P
(гПа)
Po
(гПа)
Тmin
(С)
Tmax
(С)
R
(мм)
R24
(мм)
S
(см)
21 11.10 штиль 0 10 км 8/0
[Ac lent Ci sp]
+31.5 +19.4 49 +37 +37 очень
душно
1010.7 981.4
09 12.10 штиль 0 10 км 9/0
[Ac lent Ci sp]
+31.0 +18.9 49 +36 +41 очень
душно
1012.9 983.5
21 12.10 штиль 0 9000 м пыль 8/0
[Ci sp]
+30.4 +14.6 38 +32 +32 жарко 1009.6 980.4
03 13.10 штиль 0 9000 м пыль 8/0
[Ci sp]
+26.5 +14.9 49 +29 +29 жарко 1009.1 980.0
06 15.10 штиль 0 10 км 9/0
[Ac lent Ci sp]
+22.5 +20.2 87 +29 +29 очень
душно
1012.7 982.8 +22.5 4
12 15.10 ЮВ 1 10 км 8/0
[Ci sp]
+32.8 +18.8 44 +38 +55 опасность
солнечного
удара
1013.1 983.6
15 15.10 С 2 10 км 8/3 900 м
[Sc Ci sp]
+35.7 +18.1 35 +39 +46 очень
душно
1009.5 980.2
18 15.10 ЮЗ 1 10 км {гроза} 9/1 900 м
[Sc Ac lent Ci sp]
+30.5 +18.7 49 +35 +36 очень
душно
1011.0 981.2 +36.5
21 15.10 штиль 0 10 км {дождь} 9/3 900 м
[Sc Ac lent Ci sp]
+27.5 +20.0 64 +34 +34 очень
душно
1012.9 983.1
00 16.10 штиль 0 10 км {дождь} 9/0
[Ac lent Ci sp]
+25.8 +21.6 78 +33 +33 очень
душно
1013.0 983.5 0.2
03 16.10 штиль 0 10 км 9/0
[Ci sp]
+26.0 +21.6 77 +33 +33 очень
душно
1012.2 982.8
06 16.10 штиль 0 10 км 9/0
[Ci sp]
+25.0 +22.8 88 +33 +33 очень
душно
1012.9 983.1 +25.0 0.2
09 16.10 штиль 0 10 км 9/0
[Ci sp]
+29.5 +21.4 62 +37 +44 очень
душно
1014.9 985.2
12 16.10 С 2 10 км 8/0
[Ci sp]
+35.5 +18.2 36 +39 +54 опасность
солнечного
удара
1014.3 984.8
15 16.10 С 1 10 км 9/0
[Ac As Ci sp]
+37.0 +14.0 25 +37 +42 очень
жарко
1011.9 982.6
18 16.10 штиль 0 10 км 9/0
[Ac As Ci sp]
+35.0 +17.5 36 +39 +39 очень
душно
1011.8 982.4 +38.0
21 16.10 штиль 0 10 км 9/0
[Ci sp]
+31.0 +19.8 51 +37 +37 очень
душно
1013.3 983.9
00 17.10 штиль 0 10 км 9/0
[Ac As Ci sp]
+29.5 +21.4 62 +37 +37 очень
душно
1013.0 983.8
03 17.10 штиль 0 10 км 9/0
[Ac As Ci sp]
+27.8 +20.0 63 +34 +34 очень
душно
1011.7 982.4
06 17.10 штиль 0 10 км 9/0
[Ac lent Ci sp]
+26.0 +21.2 75 +33 +33 очень
душно
1011.8 982.5 +26.0
09 17.10 штиль 0 10 км 6/0
[Ci sp]
+31.5 +17.5 43 +35 +43 очень
душно
1012.1 982.8
12 17.10 штиль 0 10 км 6/0
[Ci sp]
+38.2 +10.5 19 +37 +58 опасность
солнечного
удара
1009.3 980.4
15 17.10 штиль 0 10 км 5/0
[Ac lent Ci sp]
+39.8 +8.3 15 +38 +50 очень
жарко
1008.2 979.2
18 17.10 штиль 0 10 км 8/0
[Ci sp]
+37.7 +12.2 22 +37 +37 очень
жарко
1008.3 979.0 +40.6
21 17.10 СВ 1 10 км 8/0
[Ci sp]
+32.1 +15.3 36 +34 +34 душно 1009.9 980.8
00 18.10 Ю 1 10 км 6/0
[Ci sp]
+28.5 +15.9 46 +32 +32 душно 1009.8 980.8
03 18.10 Ю 1 10 км 6/0
[Ci sp]
+25.7 +17.2 59 +30 +30 душно 1008.9 979.8
06 18.10 штиль 0 10 км 6/0
[Ci sp]
+23.7 +18.7 74 +28 +28 душно 1009.9 980.6 +23.7
09 18.10 штиль 0 10 км 8/0
[Ci sp]
+28.4 +17.7 52 +33 +40 очень
душно
1010.0 980.7
12 18.10 СВ 1 10 км 8/0
[Ci sp]
+37.5 +13.6 24 +38 +55 опасность
солнечного
удара
1008.1 979.0

 

Местоположение метеостанции Nara (Мали): широта 15.17 долгота -7.28 высота над уровнем моря 265 м.

В архиве по умолчанию представлена погода в Nara за последнюю неделю. Архивные данные за месяц целиком и за предыдущие месяцы, начиная с января 2011 года, Вы можете получить, выбрав интересующий диапазон дат из раскрывающегося списка и нажав кнопку "Ввод!".


*Определитесь, кто Вы:
робот инопланетянин человек

Внимание! Время в таблицах - всемирное. Для получения местного времени необходимо прибавить поправку, которая в Nara равна 0 ч.

Смотрите также архив погоды в соседних городах и на ближайших метеорологических станциях:

Погода в Nema (Мавритания) (159 км)
Погода в Nioro Du Sahel (Мали) (222 км)
Погода в Segou (Мали) (231 км)
Погода в Aioun el Atrouss (Мавритания) (301 км)
Погода в Bamako (Мали) (302 км)
Погода в Kita (Мали) (332 км)
Погода в San (Мали) (334 км)
Погода в Mopti (Мали) (349 км)
Погода в Yelimane (Мали) (352 км)
Погода в Koutiala (Мали) (367 км)

Пояснения к столбцам:

Ветер - указаны скорость ветра в м/с - средняя за 10 мин, порывы в срок и между сроками (в фигурных скобках) и направление, откуда дует ветер: С - северный, СВ - северо-восточный, В - восточный, ЮВ - юго-восточный, Ю - южный, ЮЗ - юго-западный, З - западный, СЗ - северо-западный.
Видимость - горизонтальная дальность видимости в метрах или километрах. При видимости от 1 до 10 км при отсутствии осадков обычно наблюдается дымка, при ухудшении видимости до 1 км и менее - туман. В сухую погоду видимость может ухудшаться дымом, пылью или мглою.
Явления - указаны атмосферные явления, наблюдавшиеся в срок или в последний час перед сроком; фигурными скобками обозначены явления, наблюдавшиеся между сроками (за 1-3 часа до срока); квадратными скобками обозначены град или гололедные отложения с указанием их диаметра в мм.
Облачность - указаны через наклонную черту общая и нижняя облачность в баллах и высота нижней границы облаков в метрах; квадратными скобками обозначены формы облаков: Ci - перистые, Cs - перисто-слоистые, Cc - перисто-кучевые, Ac - высококучевые, As - высокослоистые, Sc - слоисто-кучевые, Ns - слоисто-дождевые, Cu - кучевые, Cb - кучево-дождевые. Подробнее классификацию облаков см. в Атласе облаков (PDF).
T - Температура воздуха - температура, измеренная на высоте 2 м над землей.
Td - Температура точки росы - температура, при понижении до которой содержащийся в воздухе водяной пар достигнет насыщения.
f - Относительная влажность воздуха - влажноcть воздуха, измеренная на высоте 2 м над землей.
Te - Эффективная температура - температура, которую ощущает одетый по сезону человек в тени. Характеристика душности погоды. При расчете учитывается влияние влажности воздуха и скорости ветра на теплоощущения человека.
Tes - Эффективная температура на солнце - температура, которую ощущает человек, с поправкой на солнечный нагрев. Характеристика знойности погоды. Зависит от высоты солнца над горизонтом, облачности и скорости ветра. Ночью, в пасмурную погоду, а также при ветре 12 м/с и более поправка равна нулю.
P - Атмосферное давление - приведенное к уровню моря атмосферное давление.
Po - Атмосферное давление - измеренное на уровне метеостанции атмосферное давление.
Tmin - Минимальная температура - минимум температуры воздуха на высоте 2 м над землей.
Tmax - Максимальная температура - максимум температуры воздуха на высоте 2 м над землей.
R - Количество осадков - Количество выпавших осадков за период времени, мм. При наведении курсора мыши на число - период времени, за который выпало указанное количество осадков.
R24 - Количество осадков - Количество выпавших осадков за 24 часа, мм.
S - Снежный покров - Высота снежного покрова, см. При наведении курсора мыши на число - состояние снежного покрова и степень покрытия местности в баллах.